(131281) = 2001 FP92 = 2003 UR180

Discovered at Socorro on 2001-03-16 by LINEAR.

Orbit

Orbit type: Main Belt

Note: WebGL enabled browser required.

epoch2024-03-31.0
epoch JD2460400.5
perihelion date2021-02-04.30765
perihelion JD2459249.80765
argument of perihelion (°)217.06020
ascending node (°)72.88131
inclination (°)8.02352
eccentricity0.1114777
perihelion distance (AU)2.4699206
Tisserand w.r.t. Jupiter3.3
ΔV w.r.t. Earth (km/sec)10.2
semimajor axis (AU)2.7798070
mean anomaly (°)244.70402
mean daily motion (°/day)0.21265810
aphelion distance (AU)3.090
period (years)4.63
P-vector [x]0.33542250
P-vector [y]-0.82741755
P-vector [z]-0.45041309
Q-vector [x]0.93257564
Q-vector [y]0.35933300
Q-vector [z]0.03438716
absolute magnitude15.2
phase slope0.15
uncertainty0
referenceMPEC 2024-F28
observations used947
oppositions21
arc length (days)10278
first opposition used1996
last opposition used2024
residual rms (arc-secs)0.75
perturbers coarse indicatorM-v
perturbers precise indicator003Ek
first observation date used1996-01-27.0
last observation date used2024-03-18.0
computer nameMPCLINUX
JD of orbit computation2456670.969385
perihelion JD uncertainty (days)1.2821E-04
argument of perihelion uncertainty (°)4.3843E-05
ascending node uncertainty (°)3.4860E-05
inclination uncertainty (°)5.7190E-06
eccentricity uncertainty 4.5399E-08
perihelion distance uncertainty (AU)1.2117E-07
Minimum Orbit Intersection Distances (in AU)
for orbit epoch: 2460400.5, reference: E2024-GF4
Mercury2.01461
Venus1.74345
Earth1.4589
Mars1.02344
Jupiter2.04797
Saturn5.97721
Uranus15.4832
Neptune26.8951

Observations

975 total observations over interval: 1996 01 27.50936 – 2024 03 18.169632
These data are available for download (format description).

Date (UT) J2000 RA J2000 Dec Magn Location Ref
1996 01 27.50936 10 11 02.45 +22 42 01.5 19.9 V 691 – Steward Observatory, Kitt Peak-Spacewatch MPS 124040
1996 01 27.52401 10 11 01.81 +22 42 07.1   691 – Steward Observatory, Kitt Peak-Spacewatch MPS 124040
1996 01 27.53898 10 11 01.16 +22 42 12.7   691 – Steward Observatory, Kitt Peak-Spacewatch MPS 124040
1998 09 21.35167 00 52 56.47 -07 11 06.1 18.5 R 699 – Lowell Observatory-LONEOS MPS 124040
1998 09 21.38795 00 52 54.62 -07 11 16.8   699 – Lowell Observatory-LONEOS MPS 124040
1998 09 21.41327 00 52 53.44 -07 11 24.0   699 – Lowell Observatory-LONEOS MPS 124040
2001 03 04.34096 12 03 28.24 +12 41 36.0 19.4   704 – Lincoln Laboratory ETS, New Mexico MPS 28435
2001 03 04.35606 12 03 27.51 +12 41 40.0 18.7   704 – Lincoln Laboratory ETS, New Mexico MPS 28435
2001 03 04.37042 12 03 26.93 +12 41 47.3 18.8   704 – Lincoln Laboratory ETS, New Mexico MPS 28435
2001 03 04.38560 12 03 26.10 +12 41 51.5 18.7   704 – Lincoln Laboratory ETS, New Mexico MPS 28435
2001 03 16.24676 11 53 46.22 +13 47 40.6 18.4   704 – Lincoln Laboratory ETS, New Mexico MPS 28435
2001 03 16.25960 11 53 45.57 +13 47 44.6 18.8   704 – Lincoln Laboratory ETS, New Mexico MPS 28435
2001 03 16.28535 11 53 44.17 +13 47 53.6 18.6   704 – Lincoln Laboratory ETS, New Mexico MPS 28435
2001 03 16.29821 11 53 43.47 +13 47 56.1 18.8   704 – Lincoln Laboratory ETS, New Mexico MPS 28435
2001 03 18.26749 11 52 02.32 +13 57 35.1 18.2 R 699 – Lowell Observatory-LONEOS MPS 28435
2001 03 18.30800 11 52 00.22 +13 57 46.7   699 – Lowell Observatory-LONEOS MPS 28435
2001 03 18.34856 11 51 58.01 +13 57 57.6   699 – Lowell Observatory-LONEOS MPS 28435
2001 03 18.38923 11 51 55.92 +13 58 10.2   699 – Lowell Observatory-LONEOS MPS 28436
2002 06 06.36746 19 43 52.53 -26 45 56.6 18.6   704 – Lincoln Laboratory ETS, New Mexico MPS 90433
2002 06 06.39462 19 43 52.05 -26 46 06.0 18.8   704 – Lincoln Laboratory ETS, New Mexico MPS 90433
2002 06 06.40852 19 43 51.76 -26 46 10.0 19.0   704 – Lincoln Laboratory ETS, New Mexico MPS 90433
2002 06 06.42209 19 43 51.43 -26 46 14.1 19.2   704 – Lincoln Laboratory ETS, New Mexico MPS 90433
2002 06 13.34107 19 41 09.62 -27 25 25.6 18.9   644 – Palomar Mountain/NEAT MPS 90433
2002 06 13.35554 19 41 09.25 -27 25 31.5 18.6   644 – Palomar Mountain/NEAT MPS 90433
2002 06 13.36719 19 41 08.81 -27 25 34.9 18.9   644 – Palomar Mountain/NEAT MPS 90433
2003 09 28.30126 03 19 01.21 +11 14 42.3 20.1   704 – Lincoln Laboratory ETS, New Mexico MPS 90659
2003 09 28.31431 03 19 00.92 +11 14 41.8 20.2   704 – Lincoln Laboratory ETS, New Mexico MPS 90659
2003 09 28.32714 03 19 00.59 +11 14 40.2 20.3   704 – Lincoln Laboratory ETS, New Mexico MPS 90659
2003 09 28.34036 03 19 00.46 +11 14 38.9 20.7   704 – Lincoln Laboratory ETS, New Mexico MPS 90659
2003 10 21.34227 03 05 35.76 +10 34 16.0 19.4   704 – Lincoln Laboratory ETS, New Mexico MPS 89811
2003 10 21.35408 03 05 35.14 +10 34 14.3 19.5   704 – Lincoln Laboratory ETS, New Mexico MPS 89811
2003 10 21.36591 03 05 34.52 +10 34 12.9 19.6   704 – Lincoln Laboratory ETS, New Mexico MPS 89811
2003 10 21.37780 03 05 33.96 +10 34 11.9 19.6   704 – Lincoln Laboratory ETS, New Mexico MPS 89811
2003 10 21.38955 03 05 33.34 +10 34 09.8 19.8   704 – Lincoln Laboratory ETS, New Mexico MPS 89811
2003 10 23.19862 03 04 04.22 +10 30 21.2 19.0 R 699 – Lowell Observatory-LONEOS MPS 89811
2003 10 23.21858 03 04 03.12 +10 30 18.2   699 – Lowell Observatory-LONEOS MPS 89811
2003 10 23.23866 03 04 02.00 +10 30 15.8   699 – Lowell Observatory-LONEOS MPS 89811
2003 10 23.25865 03 04 01.10 +10 30 13.0   699 – Lowell Observatory-LONEOS MPS 89811
2003 10 24.34416 03 03 05.90 +10 27 56.5 19.5 V 691 – Steward Observatory, Kitt Peak-Spacewatch MPS 89811
2003 10 24.37249 03 03 04.40 +10 27 52.9 19.6 V 691 – Steward Observatory, Kitt Peak-Spacewatch MPS 89811
2003 10 24.39951 03 03 02.98 +10 27 49.3 19.6 V 691 – Steward Observatory, Kitt Peak-Spacewatch MPS 89811
2003 10 26.38993 03 01 19.70 +10 23 38.4 18.8 V 703 – Catalina Sky Survey MPS 89811
2003 10 26.40465 03 01 19.03 +10 23 35.5 18.6 V 703 – Catalina Sky Survey MPS 89811
2003 10 26.41943 03 01 18.16 +10 23 35.1 19.6 V 703 – Catalina Sky Survey MPS 89811
2003 10 26.43426 03 01 17.30 +10 23 31.9 19.1 V 703 – Catalina Sky Survey MPS 89811
2003 10 29.25180 02 58 47.25 +10 17 38.4 18.7   704 – Lincoln Laboratory ETS, New Mexico MPS 89811
2003 10 29.26423 02 58 46.53 +10 17 36.3 19.8   704 – Lincoln Laboratory ETS, New Mexico MPS 89811
2003 10 29.27580 02 58 45.95 +10 17 35.1 19.5   704 – Lincoln Laboratory ETS, New Mexico MPS 89812
2003 10 29.28741 02 58 45.30 +10 17 34.6 20.0   704 – Lincoln Laboratory ETS, New Mexico MPS 89812
2003 10 29.29906 02 58 44.69 +10 17 32.6 19.5   704 – Lincoln Laboratory ETS, New Mexico MPS 89812
2003 11 01.25826 02 56 02.82 +10 11 30.9 18.9   704 – Lincoln Laboratory ETS, New Mexico MPS 90659
2003 11 01.27028 02 56 02.17 +10 11 29.4 19.0   704 – Lincoln Laboratory ETS, New Mexico MPS 90659
2003 11 01.28242 02 56 01.49 +10 11 28.7 19.1   704 – Lincoln Laboratory ETS, New Mexico MPS 90659
2003 11 18.21870 02 40 34.80 +09 44 45.8 18.2 V 703 – Catalina Sky Survey MPS 124040
2003 11 18.22992 02 40 34.08 +09 44 36.3 19.4 V 703 – Catalina Sky Survey MPS 124040
2003 11 18.24115 02 40 33.47 +09 44 35.4 20.4 V 703 – Catalina Sky Survey MPS 124040
2003 11 18.25236 02 40 33.03 +09 44 36.3 18.5 V 703 – Catalina Sky Survey MPS 124040
2003 11 30.20174 02 31 21.22 +09 38 57.4 19.7   704 – Lincoln Laboratory ETS, New Mexico MPS 92787
2003 11 30.22774 02 31 20.27 +09 38 57.1 19.5   704 – Lincoln Laboratory ETS, New Mexico MPS 92787
2003 11 30.24099 02 31 19.73 +09 38 58.7 19.9   704 – Lincoln Laboratory ETS, New Mexico MPS 92787
2003 11 30.25389 02 31 19.19 +09 38 57.5 20.0   704 – Lincoln Laboratory ETS, New Mexico MPS 92787
2005 01 06.33681 08 38 53.85 +27 04 37.2 19.2 R 703 – Catalina Sky Survey MPS 124040
2005 01 06.34325 08 38 53.55 +27 04 39.4 19.4 R 703 – Catalina Sky Survey MPS 124040
2005 01 06.34971 08 38 53.07 +27 04 41.6 19.3 R 703 – Catalina Sky Survey MPS 124040
2005 01 06.35617 08 38 52.81 +27 04 43.2 18.8 R 703 – Catalina Sky Survey MPS 124040
2005 01 07.34990 08 38 04.45 +27 10 11.7 20.5   704 – Lincoln Laboratory ETS, New Mexico MPS 124040
2005 01 07.36321 08 38 03.72 +27 10 16.3 19.7   704 – Lincoln Laboratory ETS, New Mexico MPS 124040
2005 01 07.37655 08 38 03.15 +27 10 20.6 20.1   704 – Lincoln Laboratory ETS, New Mexico MPS 124040
2005 01 07.38989 08 38 02.47 +27 10 25.2 20.5   704 – Lincoln Laboratory ETS, New Mexico MPS 124040
2005 01 16.34451 08 30 06.73 +27 58 02.3 19.3   704 – Lincoln Laboratory ETS, New Mexico MPS 124653
2005 01 16.35760 08 30 06.02 +27 58 06.1 19.8   704 – Lincoln Laboratory ETS, New Mexico MPS 124653
2005 01 16.37062 08 30 05.33 +27 58 10.7 20.0   704 – Lincoln Laboratory ETS, New Mexico MPS 124653
2005 01 16.38413 08 30 04.47 +27 58 14.3 19.6   704 – Lincoln Laboratory ETS, New Mexico MPS 124653
2005 01 16.39716 08 30 03.69 +27 58 18.3 19.7   704 – Lincoln Laboratory ETS, New Mexico MPS 124653
2005 01 19.34489 08 27 16.11 +28 12 53.3 19.1   704 – Lincoln Laboratory ETS, New Mexico MPS 124653
2005 01 19.35885 08 27 15.22 +28 12 58.2 19.7   704 – Lincoln Laboratory ETS, New Mexico MPS 124653
2005 01 19.37234 08 27 14.51 +28 13 01.5 19.6   704 – Lincoln Laboratory ETS, New Mexico MPS 124653
2005 01 19.38609 08 27 13.72 +28 13 05.4 19.7   704 – Lincoln Laboratory ETS, New Mexico MPS 124653
2005 01 19.40075 08 27 12.77 +28 13 09.8 19.9   704 – Lincoln Laboratory ETS, New Mexico MPS 124653
2006 03 29.39448 14 18 37.11 -04 06 29.6 18.7 V H06 – iTelescope Observatory, Mayhill MPS 166940
2006 03 29.41720 14 18 36.21 -04 06 25.1 18.7 V H06 – iTelescope Observatory, Mayhill MPS 166940
2006 04 06.37473 14 13 12.14 -03 39 59.6 18.9 V 703 – Catalina Sky Survey MPS 168199
2006 04 06.38122 14 13 11.78 -03 39 58.1 18.7 V 703 – Catalina Sky Survey MPS 168199
2006 04 06.38766 14 13 11.46 -03 39 56.9 19.1 V 703 – Catalina Sky Survey MPS 168199
2006 04 06.39427 14 13 11.10 -03 39 53.3 18.8 V 703 – Catalina Sky Survey MPS 168199
2006 04 19.24337 14 02 34.20 -02 59 19.7 18.4 R 699 – Lowell Observatory-LONEOS MPS 169098
